sat.trackr.live / text

‹ back to catalog

GEESAT-2 02

NORAD 58906 · 2024-023B

PAYLOAD ACTIVE UNKNOWN

§ Identity

Operator
Country
PRC
Launch date
2024-02-02
Launch site
XICLF
Launch vehicle
Mass (kg)
RCS (m²)

External: N2YO · Heavens-Above · Gunter

§ Orbital elements

Epoch: 2026-05-25T03:40:16.784256Z

Period
97.09 min
Inclination
49.9984°
Eccentricity
0.0015117
Mean motion
14.83151418 rev/d
Perigee alt
608.8 km
Apogee alt
630.0 km
Semi-major
6,997.5 km
B*
1.8452e-4
RAAN
100.9113°
Arg perigee
271.9919°
Mean anomaly
87.9288°
Rev number
12,549

§ Raw data

GEESAT-2 021 58906U 24023B   26145.15297204  .00001295  00000+0  18452-3 0  99962 58906  49.9984 100.9113 0015117 271.9919  87.9288 14.83151418125490

JSON: /api/v1/satellites/58906 · /tle

For live sub-satellite position, see the globe view (requires WebGL).

§ Visibility from observer

Set your observer location to see the next 7 days of passes ≥ 10°. The values pass through the URL so the page stays shareable.

No JS? Fill the form by hand. The geolocation button needs JavaScript.